Location: Newark
(50.2306°N, 14.0814°E)
Time: 06:38:38
(UTC+00:00)

N. Korean satellite - Pass Details

Date: 09 December 2019
Orbit: 454 x 508 km, 97.2° (Epoch: 20 January)

Event Time Altitude Azimuth Distance (km) Brightness Sun altitude
Rises 05:24:05 0° 9° (N) 2,568 10.1 -13.0°
Reaches altitude 10° 05:26:12 10° 5° (N) 1,673 9.1 -12.7°
Maximum altitude 05:29:43 54° 287° (WNW) 588 6.6 -12.2°
Drops below altitude 10° 05:33:08 10° 210° (SSW) 1,629 9.1 -11.7°
Sets 05:35:10 0° 206° (SSW) 2,492 10.1 -11.4°
